Theta_e
337 330 325 325 325 325 324 325 330 333 334 335 338 339 338 338 338 338 337 336 335 335 335 335 334 333 331 331 333 333 333 334 335 335 335 335 333 329 326 324 324 324 324 324 324 323 324 326 326 325 324 324 325 326 327 327 327 326 324 322 320 322 325 326 327 326 324 323 322 321 319 317 317 319
341 338 332 327 324 325 325 325 327 331 333 335 336 338 338 338 338 338 338 337 335 333 333 332 332 331 331 331 332 331 331 332 334 335 335 334 333 331 328 325 324 324 324 324 323 323 323 324 325 325 324 323 325 326 327 327 327 327 327 324 322 322 324 326 328 327 325 323 322 320 319 317 317 318
341 341 339 335 329 325 324 324 327 329 330 332 334 336 337 338 339 338 339 337 333 331 332 330 329 331 331 332 332 331 331 332 334 334 333 332 332 331 328 325 324 324 324 324 323 323 323 323 324 324 324 323 324 326 327 327 328 328 328 327 325 324 325 326 328 328 326 323 322 320 319 317 317 317
340 339 339 339 336 332 328 325 326 328 329 330 331 333 336 338 339 339 339 337 331 329 330 330 329 332 332 333 333 332 332 333 334 334 332 332 332 331 327 324 324 324 324 324 324 323 323 323 324 324 324 324 324 326 328 328 328 328 328 329 328 327 327 328 329 329 327 323 321 320 319 318 317 317
339 338 337 338 338 338 336 332 329 327 328 330 330 331 333 335 336 337 338 337 332 328 329 329 329 331 333 334 333 333 333 334 334 334 332 332 332 331 327 324 324 324 324 324 324 324 324 324 324 324 324 324 324 326 328 328 329 330 330 330 330 329 329 329 330 329 326 323 321 320 319 318 317 316
337 337 336 336 336 337 338 338 336 332 329 329 330 331 331 331 332 333 334 335 334 330 328 327 327 328 332 333 333 333 333 333 334 334 333 333 333 331 327 325 324 323 324 324 324 324 324 324 324 324 325 325 326 329 330 330 330 331 332 331 331 330 330 330 330 328 325 323 321 319 317 316 315 315
337 337 336 335 335 336 336 336 337 337 333 331 330 330 330 330 330 330 331 331 332 329 327 327 327 326 328 330 331 333 333 333 335 334 334 334 334 332 330 328 326 325 324 323 323 324 324 324 324 324 326 328 330 331 331 331 332 333 333 332 331 331 330 330 330 327 324 322 320 317 315 314 314 314
336 336 336 335 335 336 336 335 335 337 337 335 333 331 330 329 329 329 330 329 329 328 327 326 326 325 325 326 329 332 333 335 335 335 335 335 334 333 332 330 328 326 325 325 324 324 324 324 325 325 327 329 330 331 331 333 334 333 332 332 332 331 331 331 329 325 321 319 317 315 314 313 314 314
335 334 335 334 335 336 336 336 336 336 336 336 336 335 333 331 329 328 329 329 329 329 327 326 325 325 325 325 326 329 331 333 334 335 335 334 335 334 332 331 328 326 327 327 326 324 324 324 325 326 327 327 329 331 333 334 333 333 333 333 332 332 332 331 327 322 319 317 316 314 313 313 313 313
336 336 335 335 336 336 335 335 336 335 336 336 336 336 335 334 332 331 329 329 329 328 326 324 324 324 324 325 325 325 327 330 332 334 334 335 334 334 333 331 328 327 327 327 326 325 324 324 325 326 327 327 329 332 333 332 332 333 333 333 332 332 331 330 326 321 318 316 314 313 312 312 312 312
337 338 337 337 337 337 336 336 335 335 335 335 335 335 335 335 335 334 332 330 329 327 326 324 323 323 323 324 324 325 325 327 329 331 334 333 332 331 331 329 329 329 328 328 327 326 326 324 324 325 327 328 330 331 331 331 332 333 333 333 333 331 329 328 325 321 317 316 315 314 313 312 312 311
338 339 339 338 339 338 338 337 336 336 335 335 335 334 335 335 336 336 335 334 332 330 328 327 325 324 324 323 324 325 325 326 326 326 328 328 327 327 328 328 329 331 331 330 329 327 327 326 325 325 326 328 330 330 331 332 332 333 334 334 333 330 327 326 323 319 317 318 319 316 314 311 310 310
341 341 340 339 339 338 338 337 338 337 336 335 335 335 335 335 335 335 336 336 335 334 332 331 329 328 327 326 325 325 326 325 324 324 325 325 325 326 327 329 330 332 333 333 331 328 327 327 327 327 327 329 330 331 332 332 332 333 334 333 332 327 323 321 320 318 320 323 323 319 314 311 309 309
342 342 341 340 340 339 339 338 338 339 338 337 336 335 335 336 336 336 336 336 337 337 336 335 334 332 332 331 330 329 328 326 325 325 325 325 325 327 329 330 331 333 334 334 332 329 328 328 329 329 330 330 331 331 332 332 332 333 333 332 329 325 322 320 319 320 323 324 323 319 314 310 308 306
343 343 343 342 342 342 341 340 339 339 339 338 337 335 335 337 337 337 337 337 337 338 338 337 336 336 335 334 334 333 332 330 329 327 326 326 325 327 329 329 330 332 333 333 332 331 330 329 329 330 330 330 330 331 331 332 332 333 331 329 326 324 323 321 320 322 324 324 322 318 313 309 307 305
345 346 345 345 345 345 344 342 342 342 342 341 340 338 337 337 338 338 338 338 338 339 339 340 339 339 338 337 336 336 335 333 332 331 330 329 328 328 329 329 329 331 333 332 332 332 332 332 331 329 329 329 330 330 331 332 333 333 331 328 326 325 323 320 320 323 324 323 321 316 311 308 305 303
348 348 348 348 347 346 346 346 346 346 345 344 344 343 342 342 341 340 339 339 340 341 342 342 342 341 340 341 338 337 337 337 336 334 333 332 331 330 329 329 330 332 333 333 333 333 333 334 333 330 329 329 330 331 332 333 333 333 331 329 327 325 323 321 321 323 324 323 319 314 310 307 304 303
350 350 349 349 349 348 348 349 349 349 348 348 347 347 346 345 344 343 342 341 342 342 343 344 342 340 341 341 338 338 340 340 339 337 336 334 333 332 332 331 332 334 334 334 334 334 334 335 334 331 329 329 331 333 333 333 333 333 331 330 328 325 323 322 322 324 323 320 316 312 309 306 304 303
352 352 351 352 351 351 351 351 351 351 350 350 350 350 349 349 348 347 346 345 344 344 343 343 342 340 341 341 339 340 343 342 342 341 340 338 336 335 334 333 333 334 335 335 336 336 336 336 335 332 330 330 332 334 334 334 333 333 331 329 327 325 323 323 323 322 320 316 313 311 309 306 304 303
354 354 354 354 354 354 354 354 353 353 353 353 353 353 352 352 351 350 349 348 348 348 347 346 345 344 344 344 344 344 345 345 344 344 342 340 338 337 337 336 335 335 336 337 337 337 337 337 336 334 332 332 333 334 335 334 333 332 331 329 326 324 324 324 323 319 316 313 313 311 308 305 304 303
357 357 357 358 357 357 357 357 356 356 356 356 355 355 355 354 354 353 353 352 352 352 351 350 350 349 349 349 349 349 349 348 347 345 343 341 339 338 338 338 337 337 338 339 338 337 338 338 338 337 335 334 335 336 336 334 332 331 330 328 326 325 325 325 322 317 313 313 313 311 307 305 304 304
358 360 360 360 361 361 361 360 360 359 359 358 358 357 357 356 356 356 355 355 355 354 354 354 353 353 352 351 351 351 351 350 350 348 346 344 341 340 340 339 338 338 338 339 339 338 338 339 339 338 337 336 336 336 336 335 332 330 329 328 327 326 326 324 320 316 313 313 312 309 306 305 304 304
359 360 361 362 363 362 362 362 363 362 362 361 361 360 359 358 358 358 357 357 356 356 356 356 355 355 355 354 354 353 352 352 351 350 349 346 343 341 341 341 340 339 339 339 340 339 339 340 340 339 339 338 337 337 337 335 332 330 329 329 328 327 326 324 320 318 316 312 310 309 306 305 305 305
361 362 362 363 363 363 363 363 364 364 364 363 363 362 360 360 360 360 359 358 358 358 357 357 357 357 356 355 354 354 353 352 351 351 350 348 343 342 342 341 341 341 341 340 340 340 340 340 340 340 339 339 337 336 336 334 331 330 329 329 328 327 326 324 321 320 318 314 311 309 307 305 306 307
362 363 363 363 363 363 363 363 364 364 364 364 364 363 362 362 362 361 361 360 360 359 359 358 357 356 357 356 355 354 354 353 353 353 351 348 344 342 341 341 341 341 343 342 341 341 341 340 340 340 340 339 338 337 335 333 331 329 329 329 328 328 326 324 322 321 319 316 312 309 307 306 307 309
362 362 362 362 361 362 362 363 363 363 363 364 364 364 363 363 363 362 361 361 361 360 357 356 354 354 354 354 354 353 353 353 353 354 352 348 345 344 343 343 343 342 343 344 342 342 341 341 340 340 340 340 338 337 335 333 331 329 329 329 328 328 326 324 322 321 319 316 313 310 308 307 308 309
362 362 362 362 362 362 363 363 363 363 363 363 363 362 363 363 363 363 362 362 361 360 355 350 348 352 354 354 353 353 354 353 352 352 351 350 349 347 346 345 345 344 343 344 343 343 342 342 341 341 341 340 339 337 335 333 331 330 330 329 328 328 326 324 322 321 319 317 314 311 308 307 307 308
364 364 364 364 364 364 364 364 364 364 364 364 363 363 363 363 363 363 363 362 362 361 353 344 342 349 354 355 353 352 353 353 353 352 351 351 351 349 348 348 346 345 344 343 344 343 343 342 342 341 340 339 338 336 334 332 331 330 330 329 328 327 325 324 323 321 319 317 315 312 309 306 306 306
365 365 365 365 364 364 364 364 364 363 363 363 362 363 363 363 363 363 363 363 362 360 354 345 344 350 355 356 355 354 354 354 353 351 351 350 350 350 349 348 347 346 345 344 344 343 343 343 342 341 341 339 337 333 331 330 331 331 330 330 328 326 325 324 322 321 319 317 316 313 308 305 304 304
365 364 364 364 364 364 363 363 362 362 362 361 362 360 359 358 356 354 353 352 350 348 345 343 343 344 344 345 345 347 349 352 352 352 351 350 349 349 349 347 347 346 346 345 344 343 343 343 342 341 340 339 336 332 329 330 332 332 332 330 328 326 324 323 322 320 318 317 315 311 307 304 303 304
363 363 363 362 361 361 361 360 359 357 355 354 353 351 347 343 340 337 335 334 333 333 331 332 333 332 332 332 332 333 337 339 341 347 350 350 349 349 348 348 347 346 346 346 345 343 343 343 342 341 341 339 337 333 329 329 332 333 332 330 328 325 324 323 320 317 316 314 311 308 304 303 303 305
362 362 361 361 360 359 357 355 352 347 342 340 338 335 333 331 329 329 329 328 329 329 329 330 330 331 332 332 330 330 332 331 333 341 347 349 349 349 348 347 346 346 345 345 345 344 342 342 342 341 341 341 338 334 330 329 332 333 332 330 327 325 324 320 315 312 310 308 306 304 303 303 305 306
359 358 356 355 352 349 345 341 337 333 331 329 329 328 328 328 328 328 328 329 329 329 330 331 331 332 333 334 336 337 337 335 335 340 344 346 347 348 348 347 347 347 345 345 345 344 342 341 341 341 341 340 338 335 331 330 332 334 332 329 327 325 322 317 313 309 307 305 303 303 303 304 305 307
352 348 344 339 335 332 330 329 328 327 327 327 327 328 328 328 328 329 329 329 330 330 331 331 332 332 333 335 335 337 338 338 338 339 342 344 345 346 347 347 346 346 346 345 345 343 341 340 339 340 339 337 336 334 332 330 331 332 330 328 326 323 318 314 311 307 305 303 303 304 304 305 305 307
338 334 330 327 326 326 327 327 327 327 327 327 327 328 328 328 328 329 329 330 330 330 330 331 331 332 332 332 333 334 336 337 339 340 341 343 343 345 346 346 346 346 345 344 343 342 341 340 339 339 337 335 333 332 332 332 331 330 329 327 324 320 316 313 310 306 304 304 305 305 305 305 306 309
327 326 326 326 326 326 327 327 327 327 327 328 327 327 328 328 329 329 329 329 330 329 330 331 331 332 331 331 332 332 333 335 337 340 342 343 343 344 344 345 345 346 345 344 343 341 340 339 338 338 336 334 332 331 331 330 329 329 329 326 322 319 316 312 308 305 305 306 306 305 304 305 307 309
325 325 326 326 326 327 327 327 327 328 328 327 327 327 327 327 327 328 328 328 328 329 330 330 331 332 331 330 331 331 332 333 335 337 341 343 344 344 344 344 345 345 344 344 342 341 339 337 336 337 336 333 330 328 328 327 326 327 328 325 321 318 314 309 307 307 308 308 306 304 305 307 309 309
326 326 326 327 327 327 328 327 328 328 327 326 326 326 325 325 326 327 328 329 329 329 330 330 331 332 332 331 330 330 331 333 333 335 338 341 343 343 343 344 344 343 343 343 342 340 338 336 335 336 336 332 328 326 327 326 326 326 326 324 320 316 311 308 309 309 309 308 307 305 307 309 310 309
326 327 327 327 328 328 328 328 328 327 326 326 325 324 324 325 327 328 329 329 328 329 329 330 330 332 332 332 331 330 332 333 333 334 335 339 342 343 343 343 343 343 343 342 340 337 335 334 335 336 335 333 330 328 329 329 328 326 325 322 318 314 310 309 310 310 310 308 306 306 308 310 310 309
327 327 328 329 330 329 329 329 327 326 326 325 324 324 326 327 328 328 328 328 328 328 328 329 330 332 332 332 332 332 332 333 334 334 334 336 339 341 342 342 343 343 342 340 338 335 333 333 335 336 335 333 332 331 331 330 328 325 322 319 316 313 311 310 310 310 309 307 305 307 310 311 310 310
327 328 329 330 330 330 330 328 327 326 325 324 324 326 328 329 328 327 326 326 327 327 327 329 329 330 332 333 334 334 334 334 334 334 334 335 337 339 340 341 341 341 340 338 336 334 334 334 335 334 333 331 331 331 330 329 325 322 320 319 317 315 313 312 312 311 309 307 306 309 311 311 311 311
328 329 331 331 331 331 330 329 327 325 324 323 325 327 328 327 326 326 325 325 326 326 327 328 329 329 331 332 333 334 335 334 334 335 335 335 337 339 341 340 340 339 339 338 336 335 333 332 330 329 329 330 331 330 327 324 321 321 320 319 318 317 316 314 313 312 309 307 308 311 312 312 312 312
330 330 331 332 331 331 331 330 327 325 323 323 324 326 326 324 324 324 324 324 325 325 326 327 328 328 329 330 331 332 334 334 334 335 335 335 336 338 340 341 339 337 336 335 333 331 329 327 326 327 328 328 328 326 323 321 320 320 319 318 318 318 317 314 312 311 309 309 310 312 312 312 312 312
331 331 331 331 331 331 331 330 327 325 323 323 323 324 324 323 323 323 323 323 324 324 325 327 327 327 328 329 330 331 332 333 334 334 334 335 335 336 338 339 339 337 334 330 328 326 326 326 326 327 327 325 323 321 321 321 321 320 319 319 320 318 315 311 309 309 310 311 312 312 312 312 312 312
331 331 331 331 332 332 331 330 328 326 324 324 324 324 323 323 323 322 322 322 323 323 324 326 326 327 327 328 328 329 330 331 331 331 333 334 334 335 336 334 332 330 329 327 326 326 325 325 324 324 324 322 321 321 321 321 321 320 320 320 319 315 311 308 307 308 310 311 312 312 312 312 313 312
Wind_Speed
12 12 13 13 13 13 15 16 17 18 17 16 15 15 15 16 17 17 18 20 19 17 17 17 15 14 13 12 11 11 11 10 11 14 14 13 13 12 12 12 11 11 11 11 11 11 10 9 9 9 9 9 9 9 8 8 8 9 9 9 9 9 11 14 16 18 17 16 15 14 12 12 11 11
15 15 15 15 15 16 17 17 18 19 18 17 18 18 18 18 19 20 21 22 20 18 17 17 15 14 14 14 13 12 12 11 13 15 15 15 14 14 14 14 13 13 12 12 12 12 12 11 10 11 11 11 10 10 10 9 9 9 11 11 12 13 14 16 19 20 19 18 16 14 12 12 12 11
17 17 17 18 18 18 19 19 20 20 19 18 19 20 21 21 22 22 23 24 22 19 19 18 16 16 15 16 16 16 15 14 15 16 16 15 15 15 17 16 15 14 14 14 13 13 13 12 12 12 12 13 12 12 11 11 10 11 12 13 14 15 17 18 20 21 20 17 15 14 13 13 13 12
19 20 20 20 20 19 21 22 22 22 22 21 21 21 22 23 24 24 25 27 24 21 20 20 19 19 19 19 20 20 18 17 18 18 18 17 17 17 18 18 17 16 15 15 15 15 15 14 14 14 14 14 14 14 13 12 12 12 13 14 15 17 18 19 20 22 20 16 15 14 14 14 14 14
22 22 22 22 22 21 22 23 24 25 24 24 23 24 24 25 26 26 27 29 27 23 23 23 22 22 23 24 23 22 21 21 21 21 20 19 19 19 19 19 18 17 17 16 16 16 16 16 16 15 15 16 15 15 14 14 13 14 15 16 17 18 19 20 21 22 19 15 15 15 15 15 15 14
25 25 25 24 24 24 24 25 25 26 27 27 27 27 27 27 27 27 28 29 30 28 25 25 25 25 26 27 26 25 24 23 22 23 22 21 21 20 20 20 19 18 18 18 17 17 17 17 17 16 16 16 15 15 15 14 14 15 16 17 18 18 19 20 21 20 17 15 15 14 15 15 15 14
26 27 27 26 25 25 26 26 26 27 27 29 31 31 31 31 30 30 30 31 32 31 28 27 27 27 28 29 28 27 26 25 24 25 24 24 23 23 22 22 21 20 20 20 19 19 18 18 18 17 16 16 15 15 15 15 15 15 17 18 18 19 20 21 20 19 16 14 13 14 15 15 15 15
27 28 28 27 27 27 28 28 27 27 28 29 32 33 34 35 34 33 33 34 33 34 33 31 29 28 29 30 30 29 29 28 28 27 27 27 27 26 25 24 23 22 21 22 22 21 20 20 20 19 18 17 16 16 16 16 16 16 17 18 18 19 20 20 18 15 13 12 13 14 15 16 16 16
29 29 29 28 27 28 29 29 28 28 29 29 31 33 34 36 37 37 37 37 37 37 38 36 33 31 31 32 32 32 32 31 30 30 30 30 30 29 28 27 25 23 23 23 23 23 23 22 22 21 20 19 17 16 17 17 17 17 17 17 18 19 19 18 15 13 12 12 13 15 16 17 17 17
31 31 31 29 29 30 30 30 29 29 29 30 31 33 34 34 36 38 39 40 40 40 41 40 38 36 34 34 34 34 34 34 33 33 33 33 33 33 32 30 28 25 25 24 24 25 24 24 23 23 22 20 18 18 18 18 18 17 17 17 18 18 17 16 14 13 12 13 14 15 17 18 18 17
34 33 32 32 31 31 31 31 30 30 30 31 31 32 33 33 35 37 38 40 41 42 42 42 41 40 38 36 36 35 36 36 37 37 37 37 37 36 35 33 30 28 27 26 26 25 25 24 24 24 23 21 20 20 20 19 18 18 18 18 18 18 16 15 14 13 13 13 14 16 18 19 19 18
36 36 35 35 34 34 34 33 32 32 32 32 33 32 32 33 35 36 37 39 41 42 43 42 42 41 40 39 37 36 36 39 41 41 41 41 40 38 37 35 32 30 29 28 27 26 26 25 25 25 24 23 22 21 20 19 19 18 18 18 18 17 14 13 14 13 13 14 15 18 19 20 19 18
37 37 37 37 36 36 35 35 34 34 34 35 35 34 34 35 36 36 37 38 40 41 43 43 42 42 42 41 39 38 39 41 42 41 41 42 41 39 39 38 35 32 31 30 29 28 27 27 26 26 25 25 24 22 21 21 20 18 17 18 17 16 13 12 13 13 13 15 16 19 20 20 19 19
38 37 37 37 36 36 36 36 36 36 36 37 37 36 36 37 37 38 38 39 40 41 42 43 42 43 44 43 41 41 41 40 41 41 41 42 41 40 41 40 37 34 33 32 32 31 28 28 28 27 27 26 25 24 23 22 19 17 17 18 17 15 13 12 13 14 14 15 17 19 21 20 19 18
39 38 38 38 37 37 37 36 36 36 37 38 38 38 38 39 39 40 41 42 42 42 44 44 43 44 45 42 41 43 42 41 41 41 41 42 41 41 42 42 39 36 33 34 35 33 30 29 30 29 28 27 27 26 24 22 19 18 18 19 18 15 14 14 14 14 15 16 18 19 20 20 18 16
40 40 40 39 39 39 38 37 37 37 37 37 38 38 39 40 41 41 42 43 44 45 46 46 46 46 46 43 41 42 43 42 42 42 42 42 42 43 43 43 41 36 32 34 35 34 32 30 32 32 31 29 28 26 24 22 20 19 20 20 18 16 15 15 15 15 16 17 18 19 20 19 17 15
41 41 41 41 42 41 40 40 40 40 39 39 39 40 41 42 42 43 43 44 45 46 47 49 50 49 47 46 44 41 41 42 43 43 43 42 42 44 44 43 40 35 34 35 36 36 33 31 32 34 32 29 28 26 24 23 21 21 22 21 19 17 16 15 15 16 17 18 18 18 19 18 16 14
40 41 41 42 43 42 42 43 43 43 43 42 42 43 43 44 44 45 45 46 46 46 48 50 52 50 49 49 46 43 42 44 45 45 44 43 42 43 42 40 38 36 36 37 37 37 35 31 33 35 32 29 28 26 24 23 22 23 23 22 20 19 16 15 15 17 18 18 18 17 18 17 16 14
40 41 41 42 43 43 43 44 44 44 45 45 45 46 47 47 47 47 48 48 47 47 48 50 50 50 49 49 48 46 46 47 47 46 46 46 44 42 41 40 40 40 39 38 39 40 36 32 33 34 31 29 29 27 25 23 23 24 24 23 22 20 17 15 16 17 18 17 16 15 16 17 16 15
40 40 41 42 42 42 43 43 43 44 44 46 48 49 50 50 50 51 52 50 49 49 49 50 50 50 50 50 50 49 49 49 49 47 49 49 46 43 42 43 43 41 39 38 40 41 37 33 33 33 30 30 29 27 25 25 24 25 25 24 22 19 17 16 16 16 16 15 14 14 15 16 16 15
40 40 39 40 40 41 41 41 41 42 43 45 48 49 51 51 53 56 55 52 51 51 51 51 51 50 51 51 52 52 52 52 51 50 52 52 48 46 46 46 45 42 40 39 39 40 39 36 34 32 31 30 30 28 27 26 25 26 26 26 23 19 18 17 16 16 15 14 13 13 14 15 16 15
40 40 40 39 40 41 40 40 40 40 42 45 47 48 50 51 54 57 55 53 53 53 53 53 53 52 52 51 52 54 54 54 54 54 56 55 50 48 49 48 46 44 44 42 39 39 41 39 36 34 33 32 32 30 28 27 27 28 29 27 24 21 20 18 17 15 13 13 13 13 13 14 14 13
40 40 39 39 39 40 40 40 40 40 42 45 46 47 49 52 56 56 53 52 54 54 54 55 54 54 53 52 52 52 53 55 56 58 59 57 53 51 50 49 46 45 48 47 43 41 42 41 38 37 36 35 34 33 31 29 29 29 30 29 25 22 21 20 17 14 13 13 14 13 13 13 13 12
39 38 38 38 38 38 39 39 40 40 42 45 46 47 50 53 55 54 52 52 54 54 55 56 56 55 55 54 53 52 52 54 56 58 61 61 57 53 51 49 47 48 51 51 46 44 43 42 41 40 39 37 36 33 31 31 30 30 31 30 26 24 23 22 18 15 14 14 14 14 14 13 12 12
39 39 38 38 37 37 38 39 39 40 41 43 45 47 50 52 52 51 51 52 53 54 55 54 53 52 52 52 51 52 53 55 57 60 63 61 57 53 52 50 49 51 54 54 50 47 44 43 43 43 41 40 38 36 32 30 30 30 31 30 27 26 25 23 19 16 15 15 15 14 14 13 13 13
38 37 36 35 34 35 36 36 36 37 38 40 44 46 48 49 49 49 50 52 53 55 54 49 45 45 47 48 49 51 54 58 59 60 61 59 56 55 55 55 55 56 56 55 54 52 48 46 46 45 43 42 40 38 34 31 30 30 30 31 29 27 26 24 21 18 16 15 15 15 15 15 14 14
33 32 32 32 33 33 34 35 35 36 37 38 40 42 44 47 48 49 51 52 54 56 53 45 42 45 47 49 52 54 56 59 60 58 58 59 58 57 56 57 58 59 57 56 57 56 53 50 48 47 46 44 40 38 37 34 32 31 31 32 31 28 26 25 23 20 17 16 16 16 16 16 16 15
30 31 31 33 34 35 35 35 36 37 37 38 39 41 44 47 49 50 52 53 55 57 52 43 42 47 49 50 53 55 55 57 59 58 57 58 58 57 56 56 58 59 58 57 59 58 56 54 51 50 49 46 40 37 38 38 36 33 31 31 32 30 28 27 24 21 19 18 18 18 18 17 17 16
31 33 34 34 35 35 36 36 37 37 38 39 41 42 44 46 48 50 52 54 55 56 52 45 44 48 50 51 53 55 56 58 60 59 57 56 56 57 56 55 57 60 60 60 61 61 58 56 54 53 52 49 42 38 39 39 38 36 33 32 32 30 28 27 25 22 21 21 21 20 18 17 17 17
29 31 31 32 32 32 32 33 34 35 35 36 38 39 41 42 44 46 49 51 52 52 50 48 47 50 52 52 52 53 55 59 61 60 59 57 57 57 55 55 58 61 62 61 61 62 61 58 57 57 56 52 45 40 39 39 37 37 36 33 31 29 27 26 25 23 23 23 22 20 18 18 17 17
24 24 25 25 25 25 26 27 29 30 32 33 35 37 38 40 41 43 45 47 48 48 48 48 48 49 50 50 49 49 53 57 60 60 60 59 59 58 56 56 58 62 63 61 61 63 63 61 62 61 59 55 49 41 37 37 37 37 36 33 30 28 26 24 24 24 24 23 22 20 18 18 17 16
20 20 21 22 23 25 26 28 29 30 31 32 34 35 36 38 39 41 42 44 45 47 48 48 48 48 48 49 50 50 52 55 58 60 60 60 60 59 57 56 58 61 62 61 61 63 64 63 64 63 61 59 54 44 37 37 37 36 35 32 29 27 26 24 22 21 21 21 20 19 17 17 17 16
17 19 21 22 25 26 27 28 28 29 30 31 31 31 33 34 36 38 40 43 45 46 47 48 48 48 47 48 50 51 52 55 57 57 57 58 59 58 57 58 61 62 62 63 64 65 64 62 62 61 60 58 53 44 39 39 38 37 36 33 29 28 27 24 21 20 21 21 20 18 17 17 16 14
19 20 21 22 23 23 23 24 24 25 26 28 29 31 32 34 36 38 39 40 42 44 45 47 48 48 47 47 48 50 53 56 57 56 56 56 57 57 58 60 62 63 63 64 65 64 62 61 59 57 55 51 45 40 39 39 39 39 37 34 30 28 25 22 21 21 21 20 19 18 17 17 14 11
19 19 19 19 20 20 20 20 21 23 25 27 30 32 33 32 33 34 36 37 39 43 46 47 48 49 49 50 50 52 54 55 56 57 57 56 56 58 60 61 63 64 63 62 62 62 61 61 60 57 52 45 40 39 39 39 39 39 36 32 29 26 23 21 21 20 19 19 18 17 17 15 11 8
17 17 17 17 18 18 17 19 21 23 25 27 28 29 30 30 30 32 36 41 44 46 49 50 51 51 51 51 52 53 53 54 55 56 57 57 57 58 61 63 64 65 64 63 63 62 60 61 61 58 53 46 42 43 44 42 38 36 34 31 27 24 22 21 20 20 19 18 17 16 16 12 8 8
15 16 15 15 16 17 17 19 21 22 24 25 25 26 29 32 33 35 39 44 46 48 50 52 53 52 50 50 51 51 52 52 53 55 57 59 59 59 61 63 64 64 64 64 64 62 61 61 61 59 55 51 47 46 45 41 37 35 33 29 24 22 21 22 21 20 19 16 15 14 12 9 7 8
13 13 14 15 16 17 17 18 20 21 22 24 25 28 32 35 37 38 39 41 44 46 49 52 53 50 47 47 48 49 49 49 49 51 53 56 59 59 59 61 61 60 61 62 62 62 62 61 60 60 59 56 53 51 47 42 38 35 31 26 23 22 22 23 23 21 18 15 13 12 9 7 7 8
11 13 14 15 16 16 16 17 18 20 21 24 27 31 34 35 35 35 35 37 41 44 49 53 52 47 43 41 42 43 45 46 46 46 47 50 55 58 60 61 63 63 62 61 59 58 59 61 62 62 62 61 60 57 51 44 38 33 28 25 24 23 23 23 23 20 16 14 13 11 9 9 10 9
12 14 15 15 14 14 14 15 17 18 21 25 28 31 31 30 30 31 33 36 40 44 48 53 53 46 39 35 33 34 38 41 43 43 43 45 49 54 55 56 60 62 61 59 57 57 59 61 63 63 63 61 58 52 44 37 32 29 27 25 23 20 20 22 21 19 16 14 12 11 11 10 10 9
12 13 14 13 12 12 13 14 15 18 21 25 27 26 26 26 28 31 34 37 40 44 47 50 52 48 40 32 28 28 32 36 39 40 40 41 45 49 50 50 52 53 53 53 55 58 62 63 62 62 61 58 51 43 37 33 30 28 27 25 21 17 16 18 19 18 16 14 13 13 12 12 11 10
12 13 13 11 10 10 11 12 15 18 21 23 23 22 22 25 28 31 35 38 41 43 45 47 49 49 43 35 28 27 29 32 33 34 34 35 39 44 47 47 46 48 52 56 57 58 59 58 56 56 56 51 44 37 32 30 29 29 27 23 19 16 15 16 18 17 16 14 14 14 14 12 12 11
13 12 11 10 9 10 10 11 13 16 19 19 19 19 22 25 27 30 34 37 38 39 41 43 45 47 47 41 32 27 28 30 30 29 29 31 33 37 42 44 42 40 45 50 52 53 53 51 50 50 47 41 34 30 26 25 26 26 22 19 17 16 15 16 17 16 15 14 14 14 13 12 11 10
13 12 11 10 9 9 9 10 12 14 16 18 18 18 21 24 26 27 29 31 33 34 35 37 40 43 46 44 38 29 25 27 28 28 29 30 29 30 35 39 40 41 42 40 39 41 44 44 43 40 35 28 23 22 22 23 21 18 15 14 14 15 15 15 17 17 16 15 14 13 12 11 10 10
13 12 11 9 9 8 7 8 10 12 15 17 18 18 20 23 24 26 27 26 27 28 30 32 35 37 38 38 36 29 20 15 14 16 21 23 21 21 24 24 25 32 38 40 40 39 38 35 31 27 23 19 15 16 19 18 15 13 13 13 13 14 15 16 17 17 17 15 13 12 11 11 12 12
Wind_Direction
227 226 220 220 224 225 225 220 215 216 216 212 214 222 230 239 246 245 240 245 251 252 253 259 264 263 258 258 262 268 274 280 283 282 285 289 290 289 285 281 278 275 273 271 270 271 271 271 272 274 278 282 286 288 291 298 306 313 315 308 296 299 316 328 330 329 325 319 316 314 309 303 298 293
227 230 228 226 226 227 231 231 225 222 220 217 217 222 228 234 241 245 250 255 258 255 255 257 258 258 251 249 253 256 260 267 273 275 278 281 286 288 285 281 278 275 274 274 274 275 276 276 275 275 277 279 281 281 282 288 297 305 310 306 298 297 307 317 323 326 325 321 317 314 311 307 303 298
231 232 233 232 230 229 232 234 232 230 229 227 224 225 230 235 240 244 249 256 258 253 251 252 252 253 249 247 250 250 252 257 262 265 268 271 277 280 277 275 273 271 271 271 272 272 273 274 273 272 273 275 276 276 277 282 289 297 301 302 298 297 302 308 316 321 321 318 316 313 310 307 304 302
237 237 237 237 236 234 236 236 237 237 237 236 232 232 234 237 243 247 247 250 254 252 251 252 250 249 248 248 249 250 252 255 257 259 261 265 271 272 270 267 267 266 265 265 265 266 267 268 268 269 269 270 271 271 272 276 283 289 293 296 296 296 298 303 310 316 315 311 310 308 307 305 304 304
240 241 241 241 240 239 239 239 240 241 241 240 238 238 239 240 243 247 248 250 254 255 254 254 253 249 247 248 250 252 253 254 255 257 259 263 267 268 265 262 261 261 260 259 260 261 263 264 264 265 266 266 266 265 268 273 278 284 289 293 295 295 297 301 307 311 308 301 300 302 303 304 304 304
243 244 244 244 243 241 242 242 242 242 242 242 242 243 244 245 246 248 251 253 256 258 257 256 257 253 250 251 253 254 256 257 258 258 260 262 264 265 263 261 260 259 259 259 258 259 260 262 262 262 263 261 259 261 266 272 277 283 287 290 292 294 296 300 305 307 300 291 293 296 300 303 304 305
245 246 247 246 245 244 245 244 245 245 243 243 245 246 248 250 251 250 252 254 257 261 262 259 258 256 255 255 256 257 259 261 260 260 261 262 262 263 261 261 262 262 261 260 259 259 258 258 260 260 258 255 255 259 265 271 277 283 286 289 291 292 295 298 302 300 292 285 289 294 298 302 304 306
245 247 248 248 247 247 248 247 247 247 246 245 246 248 250 252 254 254 253 254 257 260 263 262 260 258 258 259 259 258 258 259 258 259 260 260 261 262 262 263 263 263 263 262 260 259 258 257 258 258 255 253 254 259 264 270 276 281 284 288 290 291 293 296 297 292 285 285 290 296 299 300 301 303
248 248 249 250 250 250 251 252 251 249 249 249 249 250 252 254 255 256 256 257 258 259 262 264 263 260 259 259 260 259 258 258 257 256 257 258 259 261 262 263 264 263 263 262 260 257 255 255 257 256 256 256 256 257 261 267 273 277 281 285 288 289 290 291 287 281 282 288 294 298 299 299 300 300
250 250 251 252 251 251 252 253 254 254 253 253 252 253 254 256 257 257 258 258 259 260 263 266 266 264 261 259 259 259 259 259 259 257 257 258 259 260 261 263 265 264 263 263 261 259 256 254 255 255 256 256 254 254 257 263 270 273 278 282 283 285 286 283 276 276 286 293 297 300 301 300 300 301
249 250 252 253 253 253 254 255 255 255 256 256 256 257 257 258 258 258 259 260 259 260 262 264 266 266 264 261 259 258 258 258 259 258 258 258 259 260 261 264 265 265 265 263 262 260 258 255 253 252 253 252 250 252 256 261 267 271 275 279 279 281 281 273 269 276 290 299 304 306 306 304 302 302
251 251 252 253 254 255 257 258 258 257 257 258 258 260 260 260 260 260 260 260 260 261 262 263 264 265 265 263 260 257 254 252 254 255 256 258 260 261 262 265 266 265 266 265 263 260 258 255 252 250 251 250 250 252 257 261 265 269 272 274 273 274 273 266 265 276 291 300 306 310 309 306 303 302
255 254 254 255 256 257 259 261 261 261 260 260 260 261 262 261 262 262 262 261 261 261 261 262 263 263 264 263 260 257 253 251 254 255 255 257 261 262 263 263 263 263 264 264 262 258 255 253 251 250 249 249 250 252 255 258 263 267 268 266 264 264 263 261 265 276 289 297 303 307 308 304 300 299
260 259 259 260 260 261 261 262 263 263 262 262 263 264 263 262 263 263 264 263 263 262 262 263 263 263 264 265 264 262 259 257 257 256 255 257 260 261 260 261 261 259 259 259 259 257 254 251 249 247 247 247 247 249 250 254 258 261 259 256 254 255 259 264 270 279 286 292 299 303 303 301 298 296
263 263 263 264 264 264 264 264 265 265 265 265 266 266 265 263 263 263 263 264 264 264 264 264 264 263 265 268 269 268 267 264 260 259 258 258 259 258 258 260 261 260 257 257 258 259 257 253 249 247 245 245 245 246 248 250 254 255 252 250 249 252 260 268 273 278 282 288 295 298 298 297 295 292
264 265 265 266 266 266 267 268 269 269 269 269 269 269 268 266 265 264 264 264 264 265 265 266 265 264 266 269 270 270 271 269 266 264 261 259 259 259 258 260 262 264 262 258 258 260 258 254 251 248 245 244 244 245 246 248 250 250 247 246 247 252 261 268 272 274 277 284 291 294 294 293 291 287
265 266 267 267 267 268 269 269 270 270 272 272 272 272 271 268 266 265 264 264 264 264 266 267 267 267 268 269 270 271 272 272 270 267 264 262 260 259 259 261 264 267 265 260 258 259 258 254 252 249 245 242 243 242 242 244 245 245 244 244 246 250 255 264 269 270 274 282 287 289 289 289 286 282
266 267 268 268 269 271 271 270 271 272 273 274 274 275 273 271 270 268 267 266 264 263 263 264 266 268 268 269 272 273 272 272 271 270 270 269 266 264 266 268 268 266 264 262 259 259 258 254 251 249 244 241 241 239 238 240 242 241 240 240 242 243 250 260 265 267 273 279 282 284 287 286 283 278
266 268 268 270 271 272 272 272 272 273 274 275 276 276 275 275 275 273 272 270 268 267 265 265 268 270 270 271 275 275 272 272 272 273 274 274 272 271 271 269 266 263 261 261 259 258 258 254 251 249 247 243 241 239 238 240 241 239 237 236 237 239 247 256 261 267 273 275 278 283 285 282 278 274
266 268 268 270 272 273 274 274 274 275 275 275 275 275 276 276 276 276 276 274 272 272 271 270 272 274 274 274 275 275 273 272 272 273 273 271 267 264 263 263 262 260 259 257 256 256 256 252 250 250 249 246 243 241 240 241 241 239 235 233 235 239 246 253 259 265 269 270 277 284 282 275 272 269
265 267 268 270 272 274 276 276 276 276 275 274 274 274 275 275 276 278 277 274 272 273 272 272 273 275 275 274 274 273 271 271 271 269 266 265 262 259 258 258 259 259 257 254 253 253 253 249 249 252 252 249 246 243 241 242 242 239 233 232 236 240 244 251 258 264 266 270 278 281 273 266 262 259
266 267 268 269 270 272 275 276 277 276 275 275 275 275 275 274 275 277 277 273 274 275 274 274 273 273 273 272 272 272 270 269 268 265 263 263 261 258 257 258 259 260 258 254 250 249 251 249 248 250 252 251 248 245 242 243 244 239 232 232 236 239 242 249 257 265 269 273 276 274 266 258 253 252
267 268 269 270 271 273 276 277 277 276 275 274 274 275 274 272 273 277 277 276 277 278 277 277 276 276 276 275 273 273 272 270 267 264 264 261 256 253 255 256 255 255 258 258 251 246 247 248 247 247 247 247 247 245 241 242 243 238 233 233 234 235 241 247 254 266 275 275 273 269 260 254 251 254
265 266 267 269 271 273 276 277 278 278 276 275 276 275 272 270 274 279 278 277 278 277 277 278 278 279 279 278 276 274 273 271 268 266 264 259 253 251 252 253 251 252 259 263 256 247 246 248 248 247 245 245 247 246 243 243 242 236 232 233 233 234 239 244 249 262 273 274 271 264 257 254 253 258
266 267 269 272 274 275 277 278 279 280 280 280 279 278 276 276 280 282 280 279 278 275 274 275 275 276 277 276 275 274 274 272 271 269 265 257 252 250 250 250 250 252 258 262 258 251 248 247 248 246 243 242 244 245 245 244 241 236 233 234 235 237 241 244 247 256 266 270 267 259 254 254 254 257
270 272 274 277 278 278 278 278 278 278 279 280 280 280 282 284 285 286 284 282 280 276 273 270 270 272 274 274 273 273 274 274 272 268 264 258 253 252 252 251 250 251 256 259 257 252 247 246 247 246 242 240 239 240 241 241 237 234 233 234 235 238 242 244 246 253 261 265 263 256 252 252 252 255
271 273 274 276 276 276 276 276 277 277 277 278 279 281 283 285 286 286 284 282 281 278 274 269 269 274 276 275 273 273 275 276 273 267 263 261 259 256 254 253 252 251 253 255 254 252 248 245 246 247 245 240 235 234 237 237 233 229 229 232 234 237 240 241 244 252 258 259 257 253 251 251 251 256
267 269 270 272 273 275 277 278 280 280 280 280 280 281 283 284 285 285 284 284 283 282 278 274 272 276 279 276 274 276 279 280 276 269 265 263 261 259 258 256 254 251 249 248 249 249 247 246 246 247 246 240 233 233 236 234 231 230 228 229 231 233 236 238 243 250 253 252 252 252 251 253 254 258
266 269 271 273 275 276 278 280 281 281 282 282 282 283 284 285 286 286 286 287 288 288 288 286 281 283 285 282 280 280 281 279 275 270 266 263 260 259 258 255 252 250 246 244 244 245 244 244 245 245 243 238 232 231 233 231 231 231 229 228 230 233 234 236 242 248 249 248 250 252 252 254 254 254
265 268 271 274 275 276 277 278 280 281 282 284 284 286 287 287 287 288 288 289 291 293 294 294 291 290 290 287 285 284 281 277 275 271 267 261 257 256 254 249 246 246 243 241 242 241 240 241 243 243 242 238 231 227 227 227 229 230 230 230 231 231 231 236 241 245 246 247 249 249 249 250 249 246
261 264 268 271 274 277 279 281 282 283 284 285 286 286 287 288 288 290 290 292 295 296 296 296 294 292 290 287 285 282 278 276 275 272 266 259 256 256 254 247 242 241 240 240 241 240 238 240 240 239 238 236 231 225 223 224 227 228 229 229 229 228 232 239 243 243 243 244 244 243 243 244 242 239
259 263 269 274 279 282 283 283 283 283 283 285 286 286 288 289 290 292 294 297 299 301 302 302 299 296 292 288 285 282 277 274 273 269 264 258 256 255 251 243 238 237 237 237 238 238 238 239 238 236 236 235 232 225 219 220 226 228 227 225 227 230 235 239 239 238 238 238 236 235 236 237 235 236
269 273 277 279 280 280 281 282 283 285 286 288 290 292 295 296 298 301 303 306 307 308 309 307 304 300 293 286 283 280 275 274 273 268 262 258 255 252 247 241 239 238 237 236 236 236 235 234 232 233 235 235 230 223 217 216 220 223 223 222 224 230 236 238 236 233 233 231 230 231 232 232 231 235
280 280 279 280 280 281 284 287 290 293 297 300 303 305 308 310 311 314 317 318 318 317 314 310 306 302 294 285 280 275 271 271 271 268 262 258 253 249 244 241 240 239 237 235 235 233 229 226 225 226 229 227 223 219 219 217 216 216 217 219 225 230 232 232 230 229 228 228 228 229 229 227 227 237
277 276 278 281 284 287 293 298 302 306 311 315 317 318 320 323 325 326 329 331 332 331 328 321 312 304 295 287 281 276 271 268 267 264 262 257 251 247 244 241 239 237 234 232 231 229 226 224 221 217 215 214 213 213 216 217 217 215 213 215 222 227 225 222 222 222 222 223 225 226 224 219 221 244
278 281 284 287 291 297 304 308 311 315 319 324 327 329 332 335 336 335 335 336 336 337 336 330 320 308 297 288 283 279 274 270 266 262 258 254 250 246 243 240 238 236 233 230 227 225 223 221 216 209 204 202 203 204 204 206 211 214 213 214 220 222 218 213 213 214 215 218 222 221 218 215 224 249
282 286 290 295 300 306 309 309 312 319 325 329 333 336 336 336 336 335 334 332 332 334 336 333 326 314 301 291 285 281 277 273 268 264 258 252 247 245 241 237 235 233 230 228 225 223 218 213 209 205 201 196 194 195 196 197 201 208 213 216 217 214 208 204 203 205 210 215 218 215 213 216 233 248
285 290 297 302 304 306 308 312 318 326 331 333 334 335 334 334 333 333 334 334 337 340 341 338 331 320 308 297 289 284 281 276 271 268 264 255 247 242 239 236 232 230 227 224 221 219 214 208 205 204 201 195 190 189 190 192 196 203 210 214 210 203 199 198 201 204 207 210 211 208 210 220 234 241
296 302 304 306 306 308 312 318 325 332 335 336 336 337 337 338 338 338 340 344 348 352 353 348 340 327 314 304 296 288 284 279 274 271 269 261 250 243 238 234 231 229 226 222 217 212 207 203 203 204 202 199 196 194 193 195 198 201 206 208 203 197 197 200 203 204 204 204 203 200 202 218 232 239
306 308 308 307 307 308 313 321 330 337 338 338 339 342 344 344 344 348 353 356 357 358 359 357 351 339 323 310 303 297 290 283 278 274 274 268 258 248 242 237 232 227 221 214 208 204 202 203 206 207 204 202 201 199 198 199 198 197 198 197 192 191 201 208 208 205 202 201 199 195 199 215 229 239
310 308 306 303 303 307 314 325 335 340 340 341 344 349 351 352 354 358 2 4 3 2 1 1 359 351 337 319 308 303 297 290 284 280 278 275 266 258 252 247 239 229 215 205 201 202 203 205 207 204 200 198 197 196 195 194 190 187 188 187 183 186 200 208 210 210 209 204 197 193 199 213 225 236
309 305 300 296 296 304 315 329 338 341 343 346 351 356 359 360 1 4 6 7 8 7 6 6 6 1 352 337 319 305 299 295 290 286 284 281 275 266 256 250 241 226 213 206 204 202 201 201 198 192 189 189 191 190 188 185 182 181 181 180 182 189 199 205 211 218 220 212 199 195 201 213 223 234
302 298 294 289 289 300 314 329 339 342 345 349 354 356 356 358 0 4 7 10 12 13 14 13 13 10 5 357 341 320 303 295 292 292 290 287 281 272 262 256 247 229 211 202 198 194 191 189 185 182 180 180 182 181 179 177 178 178 176 177 183 195 205 208 210 214 215 209 203 203 208 214 222 235
298 295 290 285 286 297 311 327 337 343 348 352 351 348 347 351 356 359 2 6 11 16 20 22 21 18 14 8 359 342 315 296 292 292 290 288 288 280 266 253 238 218 201 186 175 172 171 171 172 171 168 164 164 168 173 178 178 172 170 179 191 202 208 208 207 207 206 205 208 212 215 219 230 241
299 297 290 282 283 292 308 325 336 344 352 355 354 350 350 353 357 359 1 4 7 12 22 33 37 34 29 23 16 7 350 327 313 299 289 288 288 271 247 222 192 176 169 159 151 149 150 149 147 144 141 142 152 167 176 179 173 163 171 190 201 203 204 206 208 208 206 207 211 215 215 220 229 235